Weather observations for the past three days for
Hutchinson, Hutchinson Municipal Airport
Imperial (Metric)
Date Time (cdt) Wind (mph) Vis. (mi.) Weather Sky Cond. Temperature (ºF) Relative Humidity Wind Chill (°F) Heat Index (°F) Pressure Precipitation (in)
Air Dwpt 6 hour altimeter (in) sea level (mb) 1 hr 3 hr 6 hr
Max. Min.
14 05:52 SE 6 10.00 Fair CLR 75.9 69.1 79% 77 29.99 1012.7
14 04:52 S 9 10.00 Fair CLR 75 69.1 82% 75 29.99 1012.7 0.01
14 03:52 S 15 G 29 5.00 Thunderstorm Heavy Rain SCT020 75.9 68 77% 77 29.97 1012.1 0.1 0.1
14 02:52 S 16 10.00 Fair CLR 79 66 65% 81 30 1013.0
14 01:52 S 18 G 25 10.00 Fair CLR 80.1 66 62% 82 30.01 1013.6
14 00:52 S 16 G 29 10.00 Fair CLR 81 66 96.1 81 61% 83 30.01 1013.5
13 23:52 S 17 G 24 10.00 Fair CLR 82 64.9 56% 84 30.01 1013.5
13 22:52 S 16 G 25 10.00 Fair CLR 84 64 51% 85 30.01 1013.7
13 20:52 S 18 G 26 10.00 Fair CLR 89.1 61 39% 89 29.98 1012.5
13 19:52 S 18 G 33 10.00 Fair CLR 91.9 61 36% 92 29.99 1012.9
13 18:52 S 21 G 35 10.00 Fair and Breezy CLR 96.1 61 100 90 31% 97 30 1013.0
13 17:52 S 29 G 37 10.00 Fair and Windy CLR 95 60.1 31% 95 30 1013.1
13 16:52 S 28 G 43 10.00 Fair and Windy CLR 99 59 27% 99 30 1013.1
13 15:52 S 22 G 33 10.00 Fair and Breezy CLR 98.1 61 29% 99 30.02 1013.6
13 14:52 S 31 G 41 10.00 Fair and Windy CLR 99 62.1 30% 100 30.01 1013.2
13 13:52 S 25 G 35 10.00 Fair and Breezy CLR 96.1 64.9 36% 99 30.02 1013.8
13 12:52 S 17 G 22 10.00 Fair CLR 90 66.9 93 75 47% 93 30.06 1015.1
13 11:52 S 24 G 30 10.00 Fair and Breezy CLR 90 66.9 47% 93 30.05 1014.6
13 10:52 S 13 10.00 Fair CLR 84 64.9 53% 86 30.07 1015.5
13 09:52 S 15 10.00 Fair CLR 82.9 64.9 55% 85 30.07 1015.4
13 08:52 S 16 10.00 Fair CLR 82 66 58% 84 30.05 1014.9
13 07:52 S 10 10.00 Fair CLR 78.1 66 67% 80 30.05 1014.7
13 06:52 S 13 10.00 Fair CLR 75 66.9 84 73.9 76% 76 30.02 1013.7
13 05:52 Calm 10.00 Fair CLR 75 66 74% 76 30.03 1014.2
13 04:52 S 7 10.00 Fair CLR 78.1 66 67% 80 30.02 1013.6
13 03:52 S 9 10.00 Fair CLR 79 66 65% 81 29.99 1012.7
13 02:52 S 10 10.00 Fair CLR 81 64.9 58% 83 29.99 1012.6
13 01:52 S 13 10.00 Fair CLR 82 64.9 56% 84 29.99 1012.6
13 00:52 S 15 G 22 10.00 Fair CLR 82.9 66 98.1 82.9 57% 85 29.99 1012.8
12 23:52 S 15 10.00 Fair CLR 84.9 64.9 51% 87 29.99 1012.7
12 22:52 S 17 G 24 10.00 Fair CLR 88 64.9 46% 90 29.98 1012.5
12 21:52 S 14 10.00 Fair CLR 89.1 64.9 45% 91 29.95 1011.6
12 20:52 S 10 10.00 Fair CLR 91 63 39% 92 29.94 1011.1
12 19:52 S 10 10.00 Fair CLR 93 63 37% 94 29.93 1010.8
12 18:52 S 14 10.00 Fair CLR 98.1 63 100 91 32% 100 29.92 1010.5
12 17:52 S 21 G 24 10.00 Fair and Breezy CLR 99 64 32% 102 29.92 1010.4
12 16:52 S 18 G 24 10.00 Fair CLR 99 63 31% 101 29.92 1010.7
12 15:52 S 17 10.00 Fair CLR 97 63 33% 99 29.93 1011.0
12 13:52 S 15 G 23 10.00 Fair CLR 96.1 66 37% 100 29.96 1011.8
12 12:52 S 14 10.00 Fair CLR 93 66.9 93.9 68 42% 97 29.98 1012.6
12 11:52 SE 13 10.00 Fair CLR 90 66.9 47% 93 29.98 1012.7
12 09:52 SE 10 10.00 Fair CLR 82 69.1 65% 85 29.99 1012.9
12 08:52 SE 8 10.00 Fair CLR 77 69.1 77% 79 30 1013.3
12 07:52 SE 9 10.00 Fair CLR 72 68 87% 29.98 1012.8
12 06:52 E 8 10.00 Fair CLR 68 66 75 66 93% 29.98 1012.7
12 05:52 E 8 10.00 Fair CLR 69.1 66.9 93% 29.97 1012.4
12 04:52 SE 5 9.00 Fair CLR 69.1 68 96% 29.96 1011.8
12 03:52 E 3 9.00 Fair CLR 69.1 68 96% 29.94 1011.1
12 02:52 Calm 8.00 Fair CLR 70 70 100% 29.94 1011.3
12 01:52 Calm 10.00 Fair CLR 73 70 90% 29.96 1012.0
12 00:52 NE 6 10.00 Fair CLR 75 71.1 93.9 75 88% 75 29.96 1012.1
11 23:52 N 5 10.00 Fair CLR 77 72 85% 78 29.96 1012.1
11 22:52 NE 9 10.00 Fair CLR 80.1 72 76% 84 29.96 1012.1
11 20:52 NE 7 10.00 Fair CLR 86 72 63% 92 29.94 1011.3
11 19:52 NE 5 10.00 Fair CLR 91 68 47% 95 29.93 1010.8
11 18:52 E 8 10.00 Fair CLR 95 64.9 97 89.1 37% 98 29.92 1010.6
11 17:52 NE 9 10.00 Fair CLR 96.1 66 37% 100 29.92 1010.8
11 16:52 Vrbl 7 10.00 A Few Clouds FEW075 95 63 35% 96 29.94 1011.0
11 14:52 S 9 10.00 Fair CLR 93 64 38% 95 29.96 1012.0
11 13:52 SE 7 10.00 Fair CLR 91.9 64.9 41% 94 29.97 1012.4
11 12:52 SE 6 10.00 Fair CLR 89.1 64.9 90 68 45% 91 29.99 1012.9
11 11:52 SE 8 10.00 Fair CLR 88 66 48% 90 29.99 1013.1
11 10:52 SE 6 10.00 Fair CLR 84 64 51% 85 29.99 1013.2
11 09:52 S 7 10.00 Fair CLR 82 64.9 56% 84 30 1013.5
11 08:52 SE 7 10.00 Fair CLR 78.1 64.9 64% 80 30 1013.4
11 07:52 E 6 10.00 Fair CLR 75 63 66% 77 30 1013.4
11 06:52 E 7 10.00 Fair CLR 68 62.1 78.1 66.9 81% 29.99 1013.3
Date Time (cdt) Wind (mph) Vis. (mi.) Weather Sky Cond. Air Dwpt Max. Min. Relative Humidity Wind Chill (°F) Heat Index (°F) altimeter (in) sea level (mb) 1 hr 3 hr 6 hr
6 hour
Temperature (ºF) Pressure Precipitation (in)